Weather History for KMRH - March, 2013

Change the Weather History Date:

Monday, March 11, 2013

  Actual Average Record
Temperature  
Mean Temperature 56 °F -  
Max Temperature 69 °F 64 °F 83 °F (1974)
Min Temperature 45 °F 41 °F 27 °F (1969)
Degree Days  
Heating Degree Days 8    
Growing Degree Days 6 (Base 50)    
Moisture  
Dew Point 50 °F    
Average Humidity 75    
Maximum Humidity 93    
Minimum Humidity 50    
Precipitation  
Precipitation 0.00 in - - ()
Sea Level Pressure  
Sea Level Pressure 30.15 in    
Wind  
Wind Speed 6 mph (ESE)    
Max Wind Speed 15 mph    
Max Gust Speed 23 mph    
Visibility 9 miles    
Events      
Averages and records for this station are not official NWS values.
T = Trace of Precipitation, MM = Missing Value Source: NWS Daily Summary

Daily Weather History Graph

Daily Weather History Graph

Search for Another Location

Airport or City:

Trip Planner

Search our weather history database for the weather conditions in past years. The results will help you decide how hot, cold, wet, or windy it might be!

Date:

Astronomy

Mar. 11, 2013 Rise Set
Actual Time 7:22 AM EDT 7:11 PM EDT
Civil Twilight 6:57 AM EDT 7:36 PM EDT
Nautical Twilight 6:28 AM EDT 8:05 PM EDT
Astronomical Twilight 5:58 AM EDT 8:35 PM EDT
Moon 6:56 AM EDT (3/11) 7:18 PM EDT (3/11)
Length of Visible Light 12h 39m
Length of Day
11h 48m
Waning Crescent, 0% of the Moon is Illuminated
Mar 11
Waning Crescent
Mar 11
New
Mar 19
First Quarter
Mar 27
Full
Apr 3
Last Quarter

Hourly Weather History & Observations

Time (EDT) Temp. Windchill Dew Point Humidity Pressure Visibility Wind Dir Wind Speed Gust Speed Precip Events Conditions
12:58 AM 45.0 °F 43.5 °F 43.0 °F 93% 30.25 in 7.0 mi ENE 3.5 mph - N/A   Clear
1:58 AM 46.0 °F 43.9 °F 44.1 °F 93% 30.25 in 9.0 mi NE 4.6 mph - N/A   Mostly Cloudy
2:58 AM 48.0 °F - 46.0 °F 93% 30.25 in 9.0 mi NNE 3.5 mph - N/A   Overcast
3:58 AM 46.9 °F - 45.0 °F 93% 30.21 in 9.0 mi NE 4.6 mph - N/A   Clear
4:58 AM 46.9 °F - 45.0 °F 93% 30.20 in 9.0 mi ENE 6.9 mph - N/A   Partly Cloudy
5:58 AM 48.0 °F - 46.0 °F 93% 30.21 in 10.0 mi ENE 4.6 mph - N/A   Overcast
6:58 AM 50.0 °F - 46.9 °F 89% 30.20 in 9.0 mi ENE 6.9 mph - N/A   Mostly Cloudy
7:58 AM 51.1 °F - 48.9 °F 92% 30.20 in 6.0 mi East 5.8 mph - N/A   Mostly Cloudy
8:58 AM 54.0 °F - 50.0 °F 86% 30.21 in 7.0 mi ENE 4.6 mph - N/A   Mostly Cloudy
9:58 AM 60.1 °F - 52.0 °F 75% 30.20 in 10.0 mi ENE 3.5 mph - N/A   Clear
10:58 AM 66.0 °F - 51.1 °F 59% 30.19 in 10.0 mi SSE 9.2 mph - N/A   Partly Cloudy
11:58 AM 66.9 °F - 48.9 °F 52% 30.18 in 10.0 mi ESE 10.4 mph - N/A   Partly Cloudy
12:58 PM 68.0 °F - 50.0 °F 52% 30.16 in 10.0 mi SE 11.5 mph - N/A   Clear
1:58 PM 68.0 °F - 48.9 °F 50% 30.15 in 10.0 mi SSE 12.7 mph - N/A   Scattered Clouds
2:58 PM 66.9 °F - 50.0 °F 54% 30.14 in 10.0 mi SE 8.1 mph - N/A   Mostly Cloudy
3:58 PM 64.9 °F - 51.1 °F 61% 30.11 in 10.0 mi SE 6.9 mph - N/A   Overcast
4:58 PM 64.9 °F - 51.1 °F 61% 30.10 in 10.0 mi SSE 8.1 mph - N/A   Overcast
5:58 PM 63.0 °F - 52.0 °F 67% 30.08 in 10.0 mi SSE 5.8 mph - N/A   Overcast
6:58 PM 63.0 °F - 51.1 °F 65% 30.10 in 10.0 mi South 9.2 mph - N/A   Overcast
7:58 PM 63.0 °F - 52.0 °F 67% 30.08 in 10.0 mi SSE 11.5 mph - N/A   Overcast
8:58 PM 62.1 °F - 52.0 °F 70% 30.07 in 10.0 mi SSE 9.2 mph - N/A   Overcast
9:58 PM 61.0 °F - 54.0 °F 78% 30.06 in 10.0 mi SSE 10.4 mph - N/A   Mostly Cloudy
10:58 PM 61.0 °F - 55.0 °F 81% 30.04 in 10.0 mi SSE 12.7 mph - N/A   Scattered Clouds
11:58 PM 62.1 °F - 54.0 °F 75% 30.01 in 10.0 mi SSE 15.0 mph 23.0 mph N/A   Clear